GW5652 Weather Reports


time (UTC)temp
F
wind
direction
speed
knots
gust
knots
rain 1hr
in
rain 24hr
in
rain mn
in
humidity
%
barometer
mb
20260507152034 53 354 2.6 4.3 0.00 0.00 0.00 82 1021.2
20260507151530 53 332 0.9 4.3 0.00 0.00 0.00 83 1021.3
20260507151027 53 315 2.6 5.2 0.00 0.00 0.00 82 1021.0
20260507150524 53 273 1.7 4.3 0.00 0.00 0.00 83 1021.2
20260507150021 53 345 0.9 3.5 0.00 0.00 0.00 84 1021.1
20260507145516 52 314 4.3 6.1 0.00 0.00 0.00 84 1021.1
20260507145014 52 301 5.2 6.1 0.00 0.00 0.00 84 1021.1
20260507144510 52 310 2.6 3.5 0.00 0.00 0.00 85 1021.1
20260507144008 52 327 1.7 7.0 0.00 0.00 0.00 85 1021.1
20260507143505 52 303 1.7 6.1 0.00 0.00 0.00 85 1021.2
20260507143002 52 315 0.9 6.1 0.00 0.00 0.00 85 1021.0
20260507142457 52 305 1.7 5.2 0.00 0.00 0.00 84 1020.9
20260507141955 51 317 2.6 4.3 0.00 0.00 0.00 85 1021.1
20260507141450 51 317 1.7 2.6 0.00 0.00 0.00 85 1020.8
20260507140947 51 310 5.2 7.8 0.00 0.00 0.00 85 1020.7
20260507140444 51 284 2.6 5.2 0.00 0.00 0.00 85 1020.9
20260507135942 51 309 4.3 5.2 0.00 0.00 0.00 85 1020.8
20260507135438 51 307 5.2 6.1 0.00 0.00 0.00 85 1020.8
20260507134936 51 308 2.6 6.1 0.00 0.00 0.00 85 1020.6
20260507134432 51 307 3.5 5.2 0.00 0.00 0.00 86 1020.9
20260507133928 51 291 1.7 3.5 0.00 0.00 0.00 86 1020.4
20260507133424 51 301 3.5 5.2 0.00 0.00 0.00 86 1020.7
20260507132923 51 310 1.7 3.5 0.00 0.00 0.00 86 1020.6
20260507132419 51 327 2.6 2.6 0.00 0.00 0.00 86 1020.6
20260507131915 51 310 2.6 4.3 0.00 0.00 0.00 86 1020.6
20260507131413 51 316 2.6 4.3 0.00 0.00 0.00 86 1020.7
20260507130909 51 323 1.7 3.5 0.00 0.00 0.00 86 1020.5
20260507130406 51 312 1.7 4.3 0.00 0.00 0.00 87 1020.6
20260507125905 51 302 2.6 3.5 0.00 0.00 0.00 86 1020.7
20260507125402 51 297 3.5 5.2 0.00 0.00 0.00 86 1020.7
20260507124900 51 302 2.6 5.2 0.00 0.00 0.00 86 1020.8
20260507124355 51 307 3.5 6.1 0.00 0.00 0.00 85 1020.6
20260507123854 51 297 3.5 5.2 0.00 0.00 0.00 85 1020.8
20260507123351 51 307 1.7 4.3 0.00 0.00 0.00 85 1020.8
20260507122847 51 300 3.5 4.3 0.00 0.00 0.00 85 1020.6
20260507122343 51 310 6.1 7.0 0.00 0.00 0.00 85 1020.8
20260507121839 51 309 2.6 5.2 0.00 0.00 0.00 85 1020.7
20260507121335 51 311 2.6 5.2 0.00 0.00 0.00 85 1020.7
20260507120832 51 310 2.6 6.1 0.00 0.00 0.00 85 1020.7
20260507120328 51 309 2.6 4.3 0.00 0.00 0.00 85 1020.9
20260507115824 51 288 3.5 4.3 0.00 0.00 0.00 85 1020.9
20260507115320 51 308 6.1 7.8 0.00 0.00 0.00 85 1021.0
20260507114816 51 301 2.6 6.1 0.00 0.00 0.00 85 1021.1
20260507114313 51 321 3.5 7.0 0.00 0.00 0.00 85 1021.1
20260507113811 51 315 7.0 7.0 0.00 0.00 0.00 85 1021.1
20260507113308 51 313 5.2 6.1 0.00 0.00 0.00 85 1021.2
20260507112805 51 302 2.6 6.1 0.00 0.00 0.00 85 1021.1
20260507112306 52 309 3.5 6.1 0.00 0.00 0.00 85 1021.0
20260507111800 52 304 3.5 5.2 0.00 0.00 0.00 85 1021.1
20260507111256 52 293 3.5 6.1 0.00 0.00 0.00 85 1021.0
20260507110752 52 314 4.3 8.7 0.00 0.00 0.00 85 1021.2
20260507110249 52 299 4.3 6.1 0.00 0.00 0.00 85 1021.4
20260507105746 52 307 2.6 7.0 0.00 0.00 0.00 85 1020.9
20260507105241 52 289 2.6 4.3 0.00 0.00 0.00 85 1021.0
20260507104739 52 311 4.3 5.2 0.00 0.00 0.00 85 1021.3
20260507104236 52 308 7.0 7.8 0.00 0.00 0.00 85 1021.3
20260507103732 52 294 4.3 7.0 0.00 0.00 0.00 85 1021.3
20260507103228 52 306 3.5 6.1 0.00 0.00 0.00 84 1021.3
20260507102724 52 294 2.6 6.1 0.00 0.00 0.00 84 1021.3
20260507102221 52 308 3.5 7.8 0.00 0.00 0.00 84 1021.3
20260507101717 52 313 2.6 7.0 0.00 0.00 0.00 84 1021.5
20260507101213 52 300 2.6 6.1 0.00 0.00 0.00 84 1021.4
20260507100710 52 286 3.5 6.1 0.00 0.00 0.00 84 1021.2
20260507100208 52 286 2.6 7.8 0.00 0.00 0.00 84 1021.4
20260507095706 52 298 4.3 7.0 0.00 0.00 0.00 84 1021.3
20260507095202 52 294 3.5 7.0 0.00 0.00 0.00 84 1021.5
20260507094659 52 293 3.5 8.7 0.00 0.00 0.00 83 1021.5
20260507094156 52 286 2.6 7.8 0.00 0.00 0.00 84 1021.7
20260507093653 52 260 4.3 6.1 0.00 0.00 0.00 84 1021.5
20260507093152 52 287 2.6 7.8 0.00 0.00 0.00 84 1021.6
20260507092648 52 310 4.3 7.8 0.00 0.00 0.00 83 1021.6
20260507092145 52 295 7.0 7.8 0.00 0.00 0.00 83 1021.6
20260507091641 52 307 6.1 7.8 0.00 0.00 0.00 83 1021.8
20260507091137 52 299 2.6 7.0 0.00 0.00 0.00 83 1021.7
20260507090633 52 311 5.2 8.7 0.00 0.00 0.00 83 1021.7
20260507090131 52 302 2.6 7.0 0.00 0.00 0.00 83 1021.7
20260507085627 52 294 3.5 11.3 0.00 0.00 0.00 83 1021.7
20260507085124 52 314 6.1 6.1 0.00 0.00 0.00 83 1021.7
20260507084621 52 281 3.5 7.8 0.00 0.00 0.00 83 1021.9
20260507084118 52 325 4.3 8.7 0.00 0.00 0.00 83 1021.9
20260507083615 53 299 1.7 7.8 0.00 0.00 0.00 83 1021.6
20260507083112 53 311 3.5 5.2 0.00 0.00 0.00 83 1021.6
20260507082607 53 260 3.5 7.8 0.00 0.00 0.00 83 1021.7
20260507082104 53 282 2.6 5.2 0.00 0.00 0.00 83 1021.6
20260507081600 53 310 1.7 8.7 0.00 0.00 0.00 82 1021.8
20260507081057 53 305 3.5 6.1 0.00 0.00 0.00 82 1021.7
20260507080553 53 303 3.5 6.1 0.00 0.00 0.00 82 1021.7
20260507080050 53 280 2.6 9.6 0.00 0.00 0.00 82 1021.6
20260507075545 53 313 7.0 9.6 0.00 0.00 0.00 83 1021.7
20260507075041 53 297 2.6 7.0 0.00 0.00 0.00 83 1021.6
20260507074538 53 260 6.1 8.7 0.00 0.00 0.00 83 1021.7
20260507074037 53 279 5.2 7.8 0.00 0.00 0.00 83 1021.9
20260507073533 53 276 4.3 9.6 0.00 0.00 0.00 83 1021.6
20260507073029 53 306 6.1 9.6 0.00 0.00 0.00 83 1021.7
20260507072527 53 321 7.0 9.6 0.00 0.00 0.00 83 1021.7
20260507072024 53 307 8.7 9.6 0.00 0.00 0.00 83 1021.8
20260507071521 53 308 8.7 13.0 0.00 0.00 0.00 83 1021.8
20260507071018 53 311 6.1 10.4 0.00 0.00 0.00 83 1021.7
20260507070515 53 309 6.1 8.7 0.00 0.00 0.00 83 1021.8
20260507070013 53 281 3.5 14.8 0.00 0.00 0.00 83 1021.8
20260507065508 53 309 9.6 14.8 0.00 0.00 0.00 83 1021.6
20260507065005 53 312 7.0 11.3 0.00 0.00 0.00 83 1021.6
20260507064504 53 313 6.1 12.2 0.00 0.00 0.00 83 1021.5
20260507064001 53 302 8.7 10.4 0.00 0.00 0.00 83 1021.6
20260507063458 52 312 7.8 9.6 0.00 0.00 0.00 83 1021.6
20260507062955 52 306 7.8 9.6 0.00 0.00 0.00 83 1021.7
20260507062452 52 290 3.5 13.9 0.00 0.00 0.00 83 1021.7
20260507061949 52 277 6.1 13.0 0.00 0.00 0.00 83 1021.7
20260507061447 52 309 5.2 9.6 0.00 0.00 0.00 83 1021.8
20260507060946 52 302 3.5 7.8 0.00 0.00 0.00 83 1021.7
20260507060442 52 302 7.0 10.4 0.00 0.00 0.00 83 1021.7
20260507055939 52 285 5.2 11.3 0.00 0.00 0.00 83 1021.7
20260507055434 52 267 3.5 9.6 0.00 0.00 0.00 83 1021.4
20260507054931 53 284 4.3 7.8 0.00 0.00 0.00 82 1021.8
20260507054427 53 269 7.0 13.0 0.00 0.00 0.00 82 1021.6
20260507053925 52 299 8.7 12.2 0.00 0.00 0.00 82 1021.6
20260507053422 52 277 6.1 11.3 0.00 0.00 0.00 82 1021.6
20260507052920 52 274 12.2 12.2 0.00 0.00 0.00 82 1021.4
20260507052418 52 283 3.5 14.8 0.00 0.00 0.00 82 1021.7
20260507051914 52 306 11.3 17.4 0.00 0.00 0.00 82 1021.7
20260507051412 52 283 6.1 20.0 0.00 0.00 0.00 82 1021.6
20260507050909 53 343 7.0 20.9 0.00 0.00 0.00 81 1021.5
20260507050405 52 296 7.0 12.2 0.00 0.00 0.00 82 1021.4
20260507045902 52 302 5.2 18.2 0.00 0.00 0.00 82 1021.5
20260507045359 52 309 8.7 20.0 0.00 0.00 0.00 82 1021.4
20260507044856 52 287 6.1 18.2 0.00 0.00 0.00 82 1021.7
20260507044352 52 281 7.0 11.3 0.00 0.00 0.00 82 1021.5
20260507043848 52 299 7.8 12.2 0.00 0.00 0.00 82 1021.6
20260507043345 52 277 9.6 13.9 0.00 0.00 0.00 82 1021.4
20260507042841 52 293 3.5 14.8 0.00 0.00 0.00 82 1021.4
20260507042337 52 272 8.7 15.6 0.00 0.00 0.00 82 1021.4
20260507041834 53 286 9.6 18.2 0.00 0.00 0.00 82 1021.4
20260507041331 53 303 9.6 16.5 0.00 0.00 0.00 82 1021.5
20260507040828 53 274 11.3 18.2 0.00 0.00 0.00 81 1021.3
20260507040324 53 251 10.4 20.9 0.00 0.00 0.00 81 1021.4
20260507035820 53 308 13.0 20.0 0.00 0.00 0.00 81 1021.0
20260507035316 53 294 14.8 17.4 0.00 0.00 0.00 81 1021.1
20260507034814 53 269 6.1 20.9 0.00 0.00 0.00 82 1021.1
20260507034310 53 300 8.7 15.6 0.00 0.00 0.00 82 1020.8
20260507033809 53 314 10.4 20.9 0.00 0.00 0.00 81 1020.8
20260507033306 53 280 12.2 24.3 0.00 0.00 0.00 81 1021.2
20260507032803 53 310 10.4 17.4 0.00 0.00 0.00 81 1021.1
20260507032259 53 286 8.7 16.5 0.00 0.00 0.00 81 1020.9
20260507031755 53 269 8.7 19.1 0.00 0.00 0.00 81 1021.0
20260507031252 54 292 10.4 11.3 0.00 0.00 0.00 80 1021.1
20260507030749 54 293 3.5 14.8 0.00 0.00 0.00 80 1020.8
20260507030246 54 263 13.0 16.5 0.00 0.00 0.00 80 1021.1
20260507025743 54 324 13.0 27.8 0.00 0.00 0.00 79 1021.1
20260507025240 54 286 6.1 13.0 0.00 0.00 0.00 80 1021.2
20260507024739 54 312 10.4 16.5 0.00 0.00 0.00 80 1021.4
20260507024236 54 276 8.7 20.0 0.00 0.00 0.00 80 1021.2
20260507023731 55 276 6.1 12.2 0.00 0.00 0.00 80 1020.9
20260507023229 55 287 7.8 26.1 0.00 0.00 0.00 79 1021.0
20260507022726 55 281 7.8 16.5 0.00 0.00 0.00 79 1021.0
20260507022221 55 291 4.3 22.6 0.00 0.00 0.00 78 1020.9
20260507021718 56 313 17.4 19.1 0.00 0.00 0.00 77 1020.9
20260507021213 56 304 14.8 24.3 0.00 0.00 0.00 76 1021.0
20260507020712 56 303 7.0 18.2 0.00 0.00 0.00 76 1021.0
20260507020208 57 296 12.2 19.1 0.00 0.00 0.00 76 1020.9
20260507015706 57 300 8.7 15.6 0.00 0.00 0.00 76 1021.0
20260507015203 57 293 9.6 20.9 0.00 0.00 0.00 75 1021.0
20260507014659 57 308 16.5 18.2 0.00 0.00 0.00 75 1021.0
20260507014155 57 289 7.0 17.4 0.00 0.00 0.00 75 1021.0
20260507013653 57 279 7.8 21.7 0.00 0.00 0.00 75 1020.9
20260507013149 57 302 14.8 21.7 0.00 0.00 0.00 75 1021.2
20260507012647 58 296 6.1 21.7 0.00 0.00 0.00 75 1021.1
20260507012142 58 308 14.8 18.2 0.00 0.00 0.00 74 1021.2
20260507011641 58 291 17.4 20.0 0.00 0.00 0.00 74 1021.0
20260507011137 58 299 11.3 24.3 0.00 0.00 0.00 74 1020.9
20260507010631 58 268 15.6 17.4 0.00 0.00 0.00 74 1021.2
20260507010128 59 285 9.6 20.9 0.00 0.00 0.00 72 1020.8
20260507005625 59 250 7.8 13.9 0.00 0.00 0.00 72 1020.9
20260507005121 59 301 11.3 21.7 0.00 0.00 0.00 73 1021.1
20260507004618 59 299 11.3 23.5 0.00 0.00 0.00 72 1021.2
20260507004116 59 279 8.7 19.1 0.00 0.00 0.00 72 1021.1
20260507003612 59 276 11.3 25.2 0.00 0.00 0.00 72 1021.0
20260507003107 60 287 7.8 15.6 0.00 0.00 0.00 71 1021.1
20260507002604 60 281 10.4 19.1 0.00 0.00 0.00 71 1021.2
20260507002059 60 321 13.0 20.0 0.00 0.00 0.00 70 1021.0
20260507001556 60 291 10.4 19.1 0.00 0.00 0.00 71 1020.9
20260507001054 60 305 15.6 26.1 0.00 0.00 0.00 70 1021.0
20260507000550 60 294 10.4 17.4 0.00 0.00 0.00 70 1021.0
20260507000045 61 296 11.3 19.1 0.00 0.00 0.00 70 1020.8
20260506235543 60 264 12.2 19.1 0.00 0.00 0.00 70 1020.9
20260506235038 60 301 14.8 28.7 0.00 0.00 0.00 70 1020.9
20260506234536 61 290 15.6 22.6 0.00 0.00 0.00 69 1021.0
20260506234033 61 308 10.4 21.7 0.00 0.00 0.00 69 1021.0
20260506233530 61 305 16.5 21.7 0.00 0.00 0.00 69 1020.8
20260506233027 60 305 13.0 20.9 0.00 0.00 0.00 70 1021.1
20260506232523 61 317 11.3 18.2 0.00 0.00 0.00 69 1021.0
20260506232018 61 305 11.3 20.9 0.00 0.00 0.00 68 1021.0
20260506231516 61 290 9.6 23.5 0.00 0.00 0.00 69 1021.1
20260506231014 62 302 10.4 24.3 0.00 0.00 0.00 69 1021.0
20260506230510 62 310 12.2 26.1 0.00 0.00 0.00 69 1021.0
20260506230008 62 308 20.9 23.5 0.00 0.00 0.00 68 1021.2
20260506225504 63 303 6.1 15.6 0.00 0.00 0.00 67 1020.9
20260506225000 63 308 7.8 15.6 0.00 0.00 0.00 68 1021.1
20260506224457 62 310 7.8 19.1 0.00 0.00 0.00 68 1020.8
20260506223954 63 317 16.5 16.5 0.00 0.00 0.00 67 1021.2
20260506223450 64 312 13.9 19.1 0.00 0.00 0.00 66 1021.2
20260506222947 64 305 12.2 13.9 0.00 0.00 0.00 66 1021.1
20260506222444 64 308 9.6 13.9 0.00 0.00 0.00 67 1021.2
20260506221940 65 306 7.8 10.4 0.00 0.00 0.00 66 1021.2
20260506221437 64 271 13.9 14.8 0.00 0.00 0.00 67 1021.2
20260506220936 64 299 8.7 13.0 0.00 0.00 0.00 66 1021.2
20260506220431 64 302 9.6 18.2 0.00 0.00 0.00 65 1021.1
20260506215927 64 295 3.5 13.0 0.00 0.00 0.00 67 1020.9
20260506215424 64 318 7.0 11.3 0.00 0.00 0.00 67 1021.0
20260506214920 64 266 3.5 16.5 0.00 0.00 0.00 65 1021.3
20260506214417 66 309 7.8 12.2 0.00 0.00 0.00 66 1021.0
20260506213914 65 247 5.2 8.7 0.00 0.00 0.00 65 1021.1
20260506213412 65 316 4.3 9.6 0.00 0.00 0.00 68 1021.1
20260506212909 64 294 9.6 10.4 0.00 0.00 0.00 67 1021.1
20260506212405 64 311 6.1 13.9 0.00 0.00 0.00 68 1021.3
20260506211859 64 288 6.1 11.3 0.00 0.00 0.00 70 1021.1
20260506211356 65 320 3.5 11.3 0.00 0.00 0.00 68 1021.1
20260506210853 64 287 5.2 7.8 0.00 0.00 0.00 70 1021.3
20260506210350 64 257 4.3 12.2 0.00 0.00 0.00 67 1021.2
20260506205847 64 232 4.3 9.6 0.00 0.00 0.00 68 1021.1
20260506205343 64 284 3.5 7.8 0.00 0.00 0.00 67 1021.2
20260506204840 64 241 7.8 10.4 0.00 0.00 0.00 68 1021.3
20260506204337 64 263 2.6 7.8 0.00 0.00 0.00 68 1021.4
20260506203835 63 250 5.2 7.0 0.00 0.00 0.00 67 1021.3
20260506203332 64 307 4.3 9.6 0.00 0.00 0.00 68 1021.3
20260506202829 63 290 4.3 8.7 0.00 0.00 0.00 69 1021.2
20260506202326 64 280 5.2 8.7 0.00 0.00 0.00 69 1021.1
20260506201822 63 308 5.2 8.7 0.00 0.00 0.00 69 1021.3
20260506201320 63 287 7.8 13.9 0.00 0.00 0.00 72 1021.3
20260506200816 63 321 3.5 9.6 0.00 0.00 0.00 70 1021.4
20260506200312 63 279 7.8 11.3 0.00 0.00 0.00 70 1021.6
20260506195809 64 303 1.7 11.3 0.00 0.00 0.00 68 1021.6
20260506195306 64 295 6.1 10.4 0.00 0.00 0.00 70 1021.5
20260506194803 62 303 2.6 7.8 0.00 0.00 0.00 70 1021.6
20260506194259 62 284 7.0 13.0 0.00 0.00 0.00 70 1021.5
20260506193757 63 292 5.2 8.7 0.00 0.00 0.00 71 1021.5
20260506193254 63 316 2.6 4.3 0.00 0.00 0.00 72 1021.4
20260506192750 62 320 2.6 5.2 0.00 0.00 0.00 74 1021.6
20260506192247 63 218 0.0 4.3 0.00 0.00 0.00 72 1021.4
20260506191743 63 326 0.9 3.5 0.00 0.00 0.00 72 1021.4
20260506191240 62 272 2.6 6.1 0.00 0.00 0.00 73 1021.5
20260506190737 65 86 0.9 3.5 0.00 0.00 0.00 68 1021.4
20260506190233 62 190 1.7 5.2 0.00 0.00 0.00 73 1021.5
20260506185731 62 43 0.0 3.5 0.00 0.00 0.00 75 1021.5
20260506185227 61 323 4.3 7.0 0.00 0.00 0.00 76 1021.2
20260506184725 60 311 0.9 4.3 0.00 0.00 0.00 77 1021.4
20260506184222 60 97 0.0 2.6 0.00 0.00 0.00 76 1021.4
20260506183719 60 350 1.7 5.2 0.00 0.00 0.00 76 1021.5
20260506183214 61 307 5.2 5.2 0.00 0.00 0.00 77 1021.5
20260506182712 59 311 0.9 4.3 0.00 0.00 0.00 79 1021.4
20260506182209 59 271 3.5 6.1 0.00 0.00 0.00 80 1021.6
20260506181707 58 297 4.3 7.8 0.00 0.00 0.00 80 1021.5
20260506181204 58 295 7.0 7.8 0.00 0.00 0.00 81 1021.5
20260506180701 59 311 3.5 4.3 0.00 0.00 0.00 82 1021.6
20260506180157 59 320 3.5 6.1 0.00 0.00 0.00 81 1021.4
20260506175653 60 322 0.0 2.6 0.00 0.00 0.00 76 1021.8
20260506175150 61 163 3.5 4.3 0.00 0.00 0.00 76 1021.4
20260506174643 61 136 0.0 5.2 0.00 0.00 0.00 76 1021.4
20260506174139 61 173 0.0 2.6 0.00 0.00 0.00 76 1021.5
20260506173637 59 83 2.6 7.8 0.00 0.00 0.00 79 1021.4
20260506173133 60 131 2.6 7.0 0.00 0.00 0.00 78 1021.2
20260506172630 60 288 2.6 6.1 0.00 0.00 0.00 78 1021.2
20260506172126 58 85 1.7 4.3 0.00 0.00 0.00 79 1021.3
20260506171624 57 145 3.5 4.3 0.00 0.00 0.00 81 1021.4
20260506171122 57 195 2.6 6.1 0.00 0.00 0.00 83 1021.6
20260506170619 56 204 1.7 4.3 0.00 0.00 0.00 84 1021.6
20260506170116 55 268 3.5 5.2 0.00 0.00 0.00 85 1021.7
20260506165615 56 161 5.2 7.0 0.00 0.00 0.00 84 1021.6
20260506165110 56 166 1.7 2.6 0.00 0.00 0.00 85 1021.6
20260506164608 55 136 4.3 8.7 0.00 0.00 0.00 87 1021.4
20260506164105 54 156 3.5 7.0 0.00 0.00 0.00 87 1021.3
20260506163601 55 151 4.3 7.0 0.00 0.00 0.00 87 1021.5
20260506163057 54 200 2.6 3.5 0.00 0.00 0.00 88 1021.7
20260506162553 55 184 0.9 3.5 0.00 0.00 0.00 87 1021.7
20260506162051 55 176 0.0 3.5 0.00 0.00 0.00 87 1021.6
20260506161548 55 143 4.3 4.3 0.00 0.00 0.00 85 1021.4
20260506161045 55 168 2.6 4.3 0.00 0.00 0.00 86 1021.4
20260506160543 55 170 1.7 3.5 0.00 0.00 0.00 86 1021.4
20260506160039 55 321 0.0 2.6 0.00 0.00 0.00 83 1021.4
20260506155538 55 120 0.9 3.5 0.00 0.00 0.00 83 1021.2
20260506153714 54 147 3.5 6.1 0.00 0.00 0.00 82 1020.9
20260506153212 54 166 0.0 1.7 0.00 0.00 0.00 83 1020.9
20260506152709 54 243 0.0 3.5 0.00 0.00 0.00 84 1021.1
20260506152206 53 262 2.6 4.3 0.00 0.00 0.00 83 1021.1